GW1765 Weather Reports


Display with metric or nautical units.
time (UTC)temp
F
wind
direction
speed
MPH
gust
MPH
rain 1hr
in
rain 24hr
in
rain mn
in
humidity
%
barometer
mb
20260505013030 66 319 5.0 9.0 0.00 0.00 0.00 51 1032.5
20260505012027 67 315 6.0 9.0 0.00 0.00 0.00 50 1032.7
20260505011017 68 322 5.0 8.0 0.00 0.00 0.00 49 1032.7
20260505010115 69 329 5.0 11.0 0.00 0.00 0.00 50 1032.9
20260505005128 68 289 4.0 7.0 0.00 0.00 0.00 50 1033.0
20260505004105 66 319 6.0 10.0 0.00 0.00 0.00 51 1033.1
20260505003102 67 342 6.0 9.0 0.00 0.00 0.00 49 1033.3
20260505002055 67 328 5.0 8.0 0.00 0.00 0.00 50 1033.5
20260505001051 67 325 3.0 7.0 0.00 0.00 0.00 50 1033.6
20260505000041 65 351 7.0 11.0 0.00 0.00 0.00 50 1033.9
20260504235038 67 325 5.0 11.0 0.00 0.00 0.00 47 1034.0
20260504234030 68 316 4.0 8.0 0.00 0.00 0.00 45 1034.2
20260504233027 69 332 3.0 7.0 0.00 0.00 0.00 45 1034.4
20260504232027 67 334 3.0 5.0 0.00 0.00 0.00 46 1034.4
20260504231016 69 330 4.0 7.0 0.00 0.00 0.00 42 1034.6
20260504230116 72 318 2.0 4.0 0.00 0.00 0.00 36 1034.8
20260504225106 78 203 1.0 3.0 0.00 0.00 0.00 37 1034.9
20260504224103 78 211 1.0 2.0 0.00 0.00 0.00 36 1034.8
20260504223101 78 221 1.0 4.0 0.00 0.00 0.00 38 1035.0
20260504222053 77 217 1.0 3.0 0.00 0.00 0.00 40 1034.9
20260504221050 76 201 1.0 3.0 0.00 0.00 0.00 41 1035.0
20260504215041 70 116 2.0 4.0 0.00 0.00 0.00 46 1035.2
20260504214101 68 78 3.0 4.0 0.00 0.00 0.00 47 1035.2
20260504213037 69 77 2.0 4.0 0.00 0.00 0.00 48 1035.3
20260504212029 70 57 1.0 4.0 0.00 0.00 0.00 51 1035.4
20260504211028 68 85 1.0 2.0 0.00 0.00 0.00 52 1035.3
20260504210025 66 75 2.0 3.0 0.00 0.00 0.00 53 1035.4
20260504205017 65 74 2.0 3.0 0.00 0.00 0.00 59 1035.5
20260504204018 62 88 1.0 3.0 0.00 0.00 0.00 65 1035.6
20260504203114 60 90 2.0 4.0 0.00 0.00 0.00 74 1035.7
20260504202105 56 90 2.0 4.0 0.00 0.00 0.00 80 1035.7
20260504201104 53 90 3.0 4.0 0.00 0.00 0.00 85 1035.6
20260504200101 49 86 2.0 4.0 0.00 0.00 0.00 85 1035.6
20260504195055 48 109 3.0 4.0 0.00 0.00 0.00 83 1035.5
20260504194051 48 102 2.0 4.0 0.00 0.00 0.00 82 1035.4
20260504193112 48 85 2.0 4.0 0.00 0.00 0.00 81 1035.4
20260504192042 48 88 2.0 4.0 0.00 0.00 0.00 81 1035.4
20260504191039 49 57 2.0 3.0 0.00 0.00 0.00 81 1035.3
20260504190039 50 79 2.0 4.0 0.00 0.00 0.00 81 1035.2
20260504185031 51 75 2.0 4.0 0.00 0.00 0.00 81 1035.3
20260504184028 52 64 2.0 3.0 0.00 0.00 0.00 82 1035.2
20260504183025 52 84 2.0 4.0 0.00 0.00 0.00 84 1035.2
20260504182018 52 58 2.0 5.0 0.00 0.00 0.00 85 1035.1
20260504181016 51 45 2.0 5.0 0.00 0.00 0.00 84 1035.3
20260504180114 50 45 1.0 3.0 0.00 0.00 0.00 84 1035.2
20260504175130 50 57 2.0 4.0 0.00 0.00 0.00 83 1035.1
20260504174104 49 69 2.0 4.0 0.00 0.00 0.00 82 1035.0
20260504173102 49 82 2.0 4.0 0.00 0.00 0.00 81 1035.0
20260504172115 49 82 2.0 4.0 0.00 0.00 0.00 81 1035.0
20260504171052 50 93 2.0 4.0 0.00 0.00 0.00 81 1035.0
20260504151103 51 40 2.0 4.0 0.00 0.00 0.00 81 1035.4
20260504141042 49 65 2.0 4.0 0.00 0.00 0.00 83 1036.0
20260504130113 49 90 2.0 3.0 0.00 0.00 0.00 83 1036.4
20260504081114 53 17 2.0 4.0 0.00 0.00 0.00 76 1035.8
20260504080126 54 90 0.0 2.0 0.00 0.00 0.00 75 1035.7
20260504045030 56 311 2.0 5.0 0.00 0.00 0.00 71 1034.7
20260504044028 56 312 4.0 7.0 0.00 0.00 0.00 71 1034.8
20260504043044 57 305 4.0 7.0 0.00 0.00 0.00 70 1034.7
20260504042022 58 311 5.0 7.0 0.00 0.00 0.00 69 1034.7
20260504041018 58 276 1.0 4.0 0.00 0.00 0.00 68 1034.6
20260504040116 59 298 2.0 4.0 0.00 0.00 0.00 67 1034.6
20260504035110 59 271 2.0 4.0 0.00 0.00 0.00 67 1034.6
20260504034107 60 225 3.0 4.0 0.00 0.00 0.00 68 1034.7
20260504033147 59 249 2.0 4.0 0.00 0.00 0.00 67 1034.6
20260504032102 59 290 3.0 4.0 0.00 0.00 0.00 66 1034.7
20260504031102 60 301 3.0 5.0 0.00 0.00 0.00 65 1034.7
20260504030055 60 328 4.0 6.0 0.00 0.00 0.00 64 1034.6
20260504025052 61 282 3.0 6.0 0.00 0.00 0.00 64 1034.6
20260504024109 61 272 3.0 6.0 0.00 0.00 0.00 63 1034.7
20260504023045 62 249 3.0 5.0 0.00 0.00 0.00 63 1034.7
20260504022040 62 294 3.0 6.0 0.00 0.00 0.00 63 1034.7
20260504021059 62 307 3.0 7.0 0.00 0.00 0.00 62 1034.7
20260504020036 63 307 5.0 8.0 0.00 0.00 0.00 59 1034.9
20260504015033 64 297 2.0 5.0 0.00 0.00 0.00 57 1035.0
20260504014030 63 300 3.0 6.0 0.00 0.00 0.00 62 1035.2